DW7262 La Rochelle FR current weather conditions

sailwx.info

Wind from 271 at 3 knots gusting 6

Air temperature 18.3° C
Dewpoint 15.8° C

Last reported at 2015-Jul-27 17:53 UTC.
Time now 2015-Jul-28 17:44 UTC

Location: N 45°57' W 001°22'.
View on Google Maps.

See reports from other nearby stations

  
Tides and Currents Weather Stations Pressure Air Temp Water Temp Dewpoint Dewpoint Depression Visibility Wind Speed Wind Dir Waves Ship Positions
date/time (UTC)wind fromknots sea level pressurealtimeterstation pressurevisibilityair tempwater tempwave heightnotes
2015-Jul-27 17:53 271 3 gusting 6 18.3
2015-Jul-27 17:43 269 4 gusting 4 18.3
2015-Jul-27 16:54 276 2 gusting 9 18.3
2015-Jul-27 16:44 263 3 gusting 9 18.3
2015-Jul-27 15:47 250 4 gusting 9 18.9
2015-Jul-27 15:37 308 5 gusting 9 18.9
2015-Jul-27 15:15 252 3 gusting 8 18.9
2015-Jul-27 15:05 259 4 gusting 10 18.9
2015-Jul-27 14:55 288 4 gusting 11 18.3
2015-Jul-27 14:45 299 6 gusting 11 18.3
2015-Jul-27 14:34 302 5 gusting 10 18.3
2015-Jul-27 14:24 283 5 gusting 11 18.3
2015-Jul-27 14:14 300 6 gusting 13 17.8
2015-Jul-27 14:04 280 6 gusting 13 17.8
2015-Jul-27 13:54 262 4 gusting 10 17.8
2015-Jul-27 13:43 332 5 gusting 12 17.8
2015-Jul-27 13:33 273 6 gusting 11 18.9
2015-Jul-27 13:12 238 5 gusting 9 20.0
2015-Jul-27 13:01 283 5 gusting 10 20.0
2015-Jul-27 12:51 290 5 gusting 10 19.4
2015-Jul-27 12:41 267 4 gusting 9 20.0
2015-Jul-27 12:31 287 4 gusting 11 19.4
2015-Jul-27 12:08 278 5 gusting 11 19.4
2015-Jul-27 11:58 287 6 gusting 11 19.4
2015-Jul-27 11:48 255 5 gusting 11 19.4
2015-Jul-27 11:39 278 6 gusting 11 19.4
2015-Jul-27 11:29 280 4 gusting 10 20.0
2015-Jul-27 11:19 287 6 gusting 10 20.0
2015-Jul-27 11:09 279 6 gusting 10 20.0
2015-Jul-27 10:47 243 5 gusting 13 20.0
2015-Jul-27 10:36 270 5 gusting 11 20.0
2015-Jul-27 10:26 267 5 gusting 11 20.0
2015-Jul-27 10:16 270 3 gusting 9 20.6
2015-Jul-27 10:06 243 2 gusting 6 20.6
2015-Jul-27 09:55 221 3 gusting 10 20.0
2015-Jul-27 09:46 271 4 gusting 10 19.4
2015-Jul-27 09:24 280 3 gusting 8 18.3
2015-Jul-27 09:02 293 6 gusting 14 18.9
2015-Jul-27 08:40 283 5 gusting 11 18.9
2015-Jul-27 08:30 247 3 gusting 7 18.9
2015-Jul-27 08:08 233 2 gusting 7 18.9
2015-Jul-27 07:45 253 2 gusting 9 18.3
2015-Jul-27 07:35 308 4 gusting 9 17.8
2015-Jul-27 07:25 277 4 gusting 5 17.8